◎1937 UBの軌道と予報位置です



 2001年と2002年の観測が報告され,軌道が次のとおり,決まりました.

惑星への0.01AU以内の接近は,次の2回でした.



Planet  Date            Min. Dis.

Earth:  1937 10 30.7    0.004959 AU

Moon:   1937 10 30.9    0.006599

Earth:  1942  4 26.8    0.004244

Moon:   1942  4 26.9    0.002450



    C/1937 UB (Hermes)                                                    

Epoch 1937 Dec. 13.0 TT = JDT 2428880.5  

T 1937 Dec. 18.88285 TT                                 Nakano

q   0.6188174            (2000.0)            P               Q

n   0.46781961     Peri.   90.48531     -0.59073696     -0.80441902

a   1.6434271      Node    35.96325     +0.69124618     -0.54468078

e   0.6234591      Incl.    6.13564     +0.41618332     -0.23713476

P   2.11



Epoch 2003 Dec. 27.0 TT = JDT 2453000.5  

T 2003 Dec. 23.12294 TT                                 Nakano

q   0.6219702            (2000.0)            P               Q

n   0.46297044     Peri.   92.39502     -0.59741355     -0.79969303

a   1.6548827      Node    34.51684     +0.68733762     -0.54909246

e   0.6241606      Incl.    6.06812     +0.41311505     -0.24287555

P   2.13

From 681 observations 1937-2003, weighting mean residual 0".62.

Residuals in seconds of arc (or two decimals in units of degrees)

1937/                     031016 138  0.0   0.4-    031023 J94  0.3+  0.2-  

371025 801  2.7+  1.3-    031016 557  0.0   0.3-    031023 J94  0.3+  0.3-  

371026 031(13.3- 21.5-)   031017 557  0.1+  0.3-    031023 J94  0.6+  0.7-  

371026 031(24.9+ 21.9-)   031017 557  0.1+  0.3-    031023 J93  0.1-  0.2+  

371027 078  3.1-  1.5-    031017 557  0.2+  0.3-    031023 J93  0.6-  0.0   

371027 078  1.6+  3.0-    031017 012  0.1-  0.6+    031023 J93  0.4-  0.3+  

371027 078  7.3+  4.6-    031017 012  0.2-  0.3+    031023 176  0.1+  0.4-  

371027 078  0.9-  0.2-    031017 012  0.1-  1.5+    031023 176  0.2+  0.4-  

371027 078  1.3+  0.7-    031017 012  0.1+  0.7+    031023 176  0.2+  0.5-  

371027 078  5.1+  2.4-    031017 557  0.2+  0.3-    031023 176  0.1+  0.4-  

371027 031(13.1- 16.1-)   031017 557  0.0   0.4-    031023 176  0.1+  0.5-  

371028 031(0.03+ 0.01-)   031017 557  0.1+  0.3-    031023 938  0.3+  0.2-  

371028 024  3.0+  2.0+    031017 750  0.5+  0.2-    031023 938  0.2+  0.5-  

371028 031(48.1-  9.8-)   031017 750  0.1+  0.2-    031023 938  0.2+  0.5-  

371028 024  4.6-  1.8-    031017 750  0.2+  0.2-    031023 938  0.5+  0.7-  

371028 031(71.7+ 10.0-)   031017 750  0.0   0.3-    031023 938  0.5+  0.4-  

371029 031 (9.0- 45.3-)   031017 750  0.1+  0.3-    031023 938  0.3+  0.3-  

2001/                     031017 683  0.0   0.5+    031023 458  0.3-  0.2+  

010809 413  0.3+  0.0     031017 683  0.1-  0.1+    031023 J90  0.9+  0.3-  

010923 699  0.2-  0.7+    031017 683  0.3+  0.1+    031023 J90  1.4-  0.7-  

010923 699  0.9-  1.1+    031017 E14  0.3+  0.5-    031023 458  0.7-  0.3-  

010925 699  0.0   1.4+    031017 E14  0.7+  0.3-    031023 J90  1.2-  0.8-  

010925 699  1.4-  0.7+    031017 E14  0.0   0.3+    031023 J90  1.2-  0.7-  

010925 699  0.0   1.4+    031017 300  0.0   1.2+    031024 H72  0.8+  0.1+  

010925 699  0.1-  0.2+    031017 300  0.4-  1.0+    031024 H72  0.1-  0.2+  

010926 699  0.4+  0.7-    031017 300  0.3-  1.4+    031024 H72  0.5+  0.0   

010926 699  0.9+  0.6-    031017 300  0.2-  1.2+    031024 H72  0.1-  0.3+  

2002/                     031017 300  0.4-  1.2+    031024 H72  0.8+  0.1+  

020613 644  0.4-  0.1+    031017 360  0.1+  0.0     031024 H72  0.2+  0.3+  

2003/                     031017 360  0.1+  0.0     031024 H72  0.0   0.1+  

030826 704  0.4+  0.9-    031017 360  0.0   0.1+    031024 H72  0.4-  0.0   

030826 704  0.3-  0.4+    031017 246  0.1-  0.4+    031024 H72  0.4-  0.2+  

030826 704  0.3+  0.3+    031017 246  0.0   0.5+    031024 H41  0.1-  0.1-  

030826 704 (0.5-  2.1+)   031017 246  0.1-  0.3+    031024 H41  0.2+  0.1-  

030903 704  0.9-  0.6+    031017 246  0.0   0.5+    031024 H41  0.2+  0.3-  

030903 704  0.5+  0.3+    031017 246  0.2+  0.6+    031024 H41  0.3+  0.0   

030903 704  0.1-  0.4-    031017 246  0.0   0.4+    031024 H41  0.2+  0.1-  

030903 704  0.4-  0.2-    031017 557  0.1+  0.3-    031024 379  0.1-  0.1+  

030928 704  0.0   0.5+    031017 557  0.0   0.3-    031024 379  0.0   0.1-  

030928 704  0.2+  0.7-    031017 J94  0.0   0.6+    031024 379  0.3+  0.2+  

030928 704  1.5-  0.3-    031017 J94  0.4-  0.8+    031024 379  0.5+  0.3+  

030928 704  0.4-  0.1+    031017 224  0.4-  0.4-    031024 108 (1.0-  2.4-) 

030928 699  0.2-  0.2+    031017 235  0.0   0.5-    031024 108  0.6-  1.7-  

030928 699  0.4-  0.3+    031017 J94  0.6-  0.7+    031024 108 (0.6+  4.6-) 

030928 699  0.4-  0.3-    031017 235  1.1+  0.9-    031024 108  0.5+  1.7-  

030928 699  0.1+  0.3+    031017 557  0.2+  0.2-    031024 108  0.3-  0.4-  

031005 608  0.6-  0.6+    031017 235  0.9+  1.2+    031024 108  0.4-  0.4+  

031005 608  0.4-  0.8+    031017 A21  0.4-  0.2-    031024 108 (0.4-  2.2+) 

031005 608  0.3-  0.3+    031017 A21  0.3-  0.3-    031025 H41  0.6+  0.5+  

031015 699  0.0   0.0     031017 A21  0.1+  0.3-    031025 H41  0.5+  0.2+  

031015 699  0.1-  0.0     031017 A21  0.2+  0.2-    031025 H41  0.7+  0.2+  

031015 699  0.2+  0.2-    031017 A21  0.1-  0.3-    031025 H41  0.1-  0.4+  

031015 699  0.0   0.2-    031017 224  0.3+  0.0     031025 830  1.2-  0.3-  

031015 673  0.2-  0.3+    031017 557  0.2+  0.3-    031025 830  1.0-  0.3-  

031015 673  0.2-  0.3+    031017 938  0.3-  0.3-    031025 830 (2.2+  0.2+) 

031015 673  0.1-  0.1+    031017 938  0.5+  0.2-    031025 830 (2.4-  0.3-) 

031015 673  0.1+  0.3+    031017 938  0.4+  0.3-    031025 830  0.1-  0.2-  

031015 673  0.3+  0.4+    031017 938  0.0   0.4-    031025 830  1.1+  0.2+  

031015 108 (4.4+  7.0+)   031017 938  0.0   0.4-    031025 830  1.2-  0.3-  

031015 108 (3.4+  0.1-)   031017 938  0.2+  0.3-    031025 830  1.1-  0.4-  

031015 108 (2.0-  1.3-)   031017 224  0.4-  0.2-    031025 830  1.8+  0.2+  

031015 108 (1.5+  3.6+)   031017 938  0.3+  0.5-    031025 704  0.3-  0.5+  

031015 198  0.3+  0.1-    031017 938  0.2+  0.5-    031025 704  1.6-  0.7+  

031015 198  0.5+  0.1-    031017 938  0.0   0.2-    031025 704  0.5-  0.0   

031015 610  0.5+  0.4+    031017 557  0.1+  0.3-    031025 704  1.8-  0.6+  

031015 198  0.1+  0.1-    031017 A18  0.1+  0.0     031025 932  0.2+  0.0   

031015 610  0.2+  0.3+    031017 113  0.0   0.2+    031025 704  1.2-  0.5+  

031015 151  0.2+  0.4-    031017 113  0.0   0.4+    031025 932  0.4+  0.1+  

031015 151  0.0   0.1-    031017 113  0.1-  0.3+    031025 932  1.0+  0.3+  

031015 610  0.0   0.0     031017 113  0.0   0.3+    031025 322  0.2-  0.4-  

031015 151  0.0   0.1+    031017 224  0.4-  0.3-    031025 322  0.2-  0.3-  

031015 151  0.1+  0.2-    031017 113  0.1-  0.2+    031025 322  0.1+  0.0   

031015 610  0.2-  0.2-    031017 557  0.1+  0.3-    031025 322  0.8-  0.1-  

031015 198  0.4+  0.2-    031018 557  0.1+  0.3-    031025 322  0.3-  0.6+  

031015 108  0.5-  1.4+    031018 557  0.1+  0.3-    031025 322  0.9+  0.1-  

031015 610  0.5-  0.3-    031018 557  0.0   0.3-    031025 322  0.4-  0.0   

031015 108  0.9-  0.9-    031018 A18  0.3-  0.3+    031025 322  0.1+  0.2-  

031015 970  0.5+  0.7+    031018 A18  0.0   0.1-    031025 322  0.2+  0.0   

031015 970  0.6+  0.5+    031018 H41  0.3+  0.5+    031025 322  0.1+  0.1+  

031015 610  0.6+  0.1-    031018 H41  0.2+  0.3+    031025 322  0.3+  0.1+  

031015 610  0.3+  0.2-    031018 H41  0.2+  0.6+    031025 322  0.2+  0.2+  

031015 970  0.3+  0.6+    031018 H41  0.1+  0.2+    031025 322  0.0   0.2+  

031015 610  0.2+  0.3-    031018 727  0.0   0.3-    031025 322  0.2-  0.4+  

031015 970  0.3+  0.5+    031018 727  1.3+  0.0     031025 322  0.3+  0.5+  

031015 610  0.1+  0.4-    031018 727  0.5+  0.3-    031025 565  0.6-  1.5+  

031015 587  1.0-  0.3-    031018 683  0.1-  0.1-    031025 565  0.3-  1.2+  

031015 587  0.9-  0.2+    031018 683  0.1+  0.4-    031025 185  1.0+  0.1+  

031015 587  0.6-  0.1-    031018 683  0.2+  0.1-    031025 565  0.2-  1.1+  

031015 587  0.2-  0.1-    031018 D70  0.1-  0.6+    031025 565  0.6-  0.6+  

031015 587  0.6-  0.4+    031018 D70  0.6-  0.1+    031025 185  0.5+  0.2-  

031015 610  0.1-  0.5-    031018 D70  0.2-  0.4-    031025 565  1.1-  0.1+  

031015 587  0.0   0.1-    031018 300  0.3-  1.3+    031025 185  0.9+  0.6-  

031015 106  0.1+  0.3-    031018 300  0.2-  1.4+    031025 565  0.6-  0.4-  

031015 106  0.1+  0.3-    031018 300  0.4-  1.4+    031025 565  0.3-  0.1+  

031015 106  0.3+  0.3-    031018 300  0.3-  1.2+    031025 565  0.3-  0.0   

031015 106  0.3+  0.3-    031018 557  0.3+  0.2-    031025 185  0.7+  0.1-  

031015 106  0.2+  0.1-    031018 557  0.2+  0.2-    031025 565  0.1-  0.1+  

031015 106  0.1+  0.3-    031018 620  0.2+  0.3-    031025 565  0.6-  0.2+  

031015 145  0.2+  0.5-    031018 620  0.2+  0.3-    031025 565  0.5+  0.0   

031015 224  0.0   0.4+    031018 620  0.3+  0.3-    031026 379  0.9-  0.4-  

031015 224  0.1+  0.2-    031018 557  0.4+  0.2-    031026 379  0.8-  0.1-  

031015 145  0.0   0.3-    031018 166  0.8-  0.0     031027 H41  0.2+  0.2-  

031015 145  0.2+  0.4-    031018 166  1.1-  0.2-    031027 H41  0.5+  0.4-  

031015 145  0.2+  0.3-    031018 166  1.2-  0.0     031027 H41  0.3+  0.1+  

031015 224  0.2+  0.1+    031018 166  0.7-  0.1+    031027 H41  0.4+  0.0   

031015 145  0.2+  0.3-    031018 174  0.5-  0.0     031027 H41  0.1+  0.0   

031015 145  0.0   0.3-    031018 166  1.1-  0.0     031027 151  0.3+  0.2+  

031015 224  0.1+  0.1+    031018 166  0.6-  0.0     031027 151  0.2+  0.1-  

031015 145  0.2+  0.3-    031018 166  1.1-  0.0     031027 151  0.3+  0.1+  

031015 145  0.2+  0.3-    031018 557  0.2+  0.3-    031027 151  0.3+  0.1-  

031015 145  0.2+  0.3-    031018 174  0.7-  0.1+    031027 151  0.3+  0.0   

031015 145  0.2-  0.4-    031018 166  0.8-  0.2+    031027 151  0.2-  0.1+  

